Location: Spruce Knob
(38.6995°N, 79.5330°W)
Time: 13:59:32
(UTC-04:00)

MOZHAYETS 4 - Pass Details

Date: 05 June 2024
Orbit: 652 x 670 km, 98.3° (Epoch: 14 June)

Event Time Altitude Azimuth Distance (km) Brightness Sun altitude
Rises 04:38:03 0° 164° (SSE) 2,974 10.8 -12.7°
Reaches altitude 10° 04:40:15 10° 163° (SSE) 2,064 10.0 -12.4°
Maximum altitude 04:44:45 84° 78° (ENE) 665 7.7 -11.7°
Drops below altitude 10° 04:49:17 10° 349° (NNW) 2,068 10.7 -11.1°
Sets 04:51:30 0° 348° (NNW) 2,982 11.5 -10.7°
